PRMJM KACY-KIAD

Flight info

Callsign PRMJM
Flight time N/A
Altitude 16000
Route LEEAH T358 OBWON T356 TWIRK T358 MRB
Aircraft C25C/M-SDE2E3FGHRWXY/LB1

Departure

Time 2026-05-05 20:10
Airport Atlantic City International Airport (KACY)

Arrival

Time N/A
Airport Washington Dulles International Airport (KIAD)
Time Latitude Longitude Altitude Speed Heading
2026-05-05 20:10 39.37697 -74.70295 13384 ft 206 kts 242°
2026-05-05 20:10 39.36947 -74.71914 14491 ft 213 kts 242°
2026-05-05 20:10 39.36170 -74.73594 15492 ft 226 kts 241°
2026-05-05 20:11 39.35316 -74.75444 15941 ft 259 kts 241°
2026-05-05 20:11 39.34309 -74.77630 15953 ft 306 kts 241°
2026-05-05 20:11 39.33144 -74.80150 15960 ft 346 kts 240°
2026-05-05 20:11 39.31849 -74.82928 15953 ft 368 kts 240°
2026-05-05 20:12 39.30583 -74.85635 15944 ft 333 kts 241°
2026-05-05 20:12 39.29508 -74.88113 15941 ft 301 kts 249°
2026-05-05 20:12 39.29190 -74.90702 15930 ft 296 kts 266°
2026-05-05 20:12 39.29268 -74.93443 15937 ft 316 kts 274°
2026-05-05 20:13 39.29462 -74.96335 15937 ft 331 kts 273°
2026-05-05 20:13 39.29597 -74.99180 15935 ft 311 kts 271°
2026-05-05 20:13 39.29691 -75.01937 15931 ft 308 kts 271°
2026-05-05 20:13 39.29811 -75.04865 15935 ft 339 kts 271°
2026-05-05 20:14 39.29946 -75.07921 15935 ft 344 kts 272°
2026-05-05 20:14 39.30089 -75.11031 15937 ft 350 kts 272°
2026-05-05 20:14 39.30224 -75.14191 15932 ft 355 kts 272°
2026-05-05 20:14 39.30354 -75.17388 15933 ft 358 kts 271°
2026-05-05 20:15 39.30489 -75.20482 15934 ft 329 kts 272°
2026-05-05 20:15 39.30608 -75.23328 15933 ft 306 kts 271°
2026-05-05 20:15 39.30720 -75.25985 15916 ft 287 kts 271°
2026-05-05 20:15 39.30820 -75.28492 15912 ft 272 kts 271°
2026-05-05 20:16 39.30920 -75.30878 15913 ft 260 kts 271°
2026-05-05 20:16 39.31016 -75.33279 15911 ft 283 kts 271°
2026-05-05 20:16 39.31120 -75.35927 15903 ft 316 kts 271°
2026-05-05 20:16 39.31243 -75.38885 15921 ft 339 kts 271°
2026-05-05 20:17 39.31362 -75.41856 15920 ft 331 kts 271°
2026-05-05 20:17 39.31474 -75.44874 15919 ft 338 kts 271°
2026-05-05 20:17 39.31596 -75.47899 15917 ft 336 kts 271°
2026-05-05 20:17 39.31714 -75.50908 15915 ft 335 kts 271°
2026-05-05 20:18 39.31833 -75.53925 15916 ft 341 kts 271°
2026-05-05 20:18 39.31954 -75.57031 15913 ft 352 kts 271°
2026-05-05 20:18 39.32081 -75.60227 15913 ft 360 kts 271°
2026-05-05 20:18 39.32201 -75.63340 15911 ft 344 kts 271°
2026-05-05 20:19 39.32313 -75.66401 15914 ft 340 kts 271°
2026-05-05 20:19 39.32427 -75.69475 15911 ft 336 kts 271°
2026-05-05 20:19 39.32538 -75.72445 15911 ft 334 kts 271°
2026-05-05 20:19 39.32652 -75.75431 15907 ft 332 kts 271°
2026-05-05 20:20 39.32760 -75.78403 15907 ft 331 kts 271°
2026-05-05 20:20 39.32871 -75.81360 15905 ft 330 kts 271°
2026-05-05 20:20 39.32977 -75.84319 15905 ft 329 kts 271°
2026-05-05 20:20 39.33086 -75.87264 15906 ft 328 kts 271°
2026-05-05 20:21 39.33190 -75.90207 15904 ft 328 kts 271°
2026-05-05 20:21 39.33296 -75.93150 15906 ft 327 kts 271°
2026-05-05 20:21 39.33402 -75.96092 15905 ft 327 kts 271°
2026-05-05 20:21 39.33502 -75.99021 15906 ft 326 kts 271°
2026-05-05 20:22 39.33607 -76.01955 15908 ft 326 kts 271°
2026-05-05 20:22 39.33706 -76.04875 15908 ft 325 kts 271°
2026-05-05 20:22 39.33808 -76.07792 15906 ft 325 kts 271°
2026-05-05 20:22 39.33907 -76.10672 15910 ft 324 kts 271°
2026-05-05 20:23 39.34008 -76.13618 15909 ft 324 kts 271°
2026-05-05 20:23 39.34104 -76.16522 15907 ft 323 kts 271°
2026-05-05 20:23 39.34203 -76.19422 15885 ft 323 kts 271°
2026-05-05 20:23 39.34298 -76.22317 15880 ft 322 kts 271°
2026-05-05 20:24 39.34395 -76.25166 14879 ft 317 kts 271°
2026-05-05 20:24 39.34497 -76.28066 12930 ft 326 kts 271°
2026-05-05 20:24 39.34593 -76.30938 11410 ft 315 kts 270°
2026-05-05 20:24 39.34680 -76.33718 10226 ft 301 kts 270°
2026-05-05 20:25 39.34765 -76.36212 9899 ft 267 kts 269°
2026-05-05 20:25 39.34836 -76.38436 9898 ft 231 kts 269°
2026-05-05 20:25 39.34897 -76.40505 9848 ft 230 kts 269°
2026-05-05 20:25 39.34959 -76.42574 9745 ft 230 kts 269°
2026-05-05 20:26 39.35023 -76.44624 9735 ft 227 kts 269°
2026-05-05 20:26 39.35086 -76.46651 9733 ft 225 kts 269°
2026-05-05 20:26 39.35150 -76.48658 9732 ft 223 kts 269°
2026-05-05 20:26 39.35209 -76.50663 9733 ft 222 kts 269°
2026-05-05 20:27 39.35269 -76.52644 9730 ft 219 kts 268°
2026-05-05 20:27 39.34869 -76.54523 9492 ft 226 kts 242°
2026-05-05 20:27 39.33934 -76.56409 9162 ft 273 kts 236°
2026-05-05 20:27 39.32755 -76.58507 8859 ft 310 kts 235°
2026-05-05 20:28 39.31503 -76.60802 8615 ft 300 kts 236°
2026-05-05 20:28 39.30376 -76.62947 8496 ft 278 kts 237°
2026-05-05 20:28 39.29301 -76.64983 8373 ft 276 kts 236°
2026-05-05 20:28 39.28190 -76.67059 8251 ft 285 kts 236°
2026-05-05 20:29 39.27053 -76.69186 8130 ft 291 kts 235°
2026-05-05 20:29 39.25901 -76.71355 8013 ft 295 kts 236°
2026-05-05 20:29 39.24726 -76.73555 7892 ft 299 kts 235°
2026-05-05 20:29 39.23544 -76.75774 7774 ft 301 kts 235°
2026-05-05 20:30 39.22348 -76.78011 7656 ft 304 kts 235°
2026-05-05 20:30 39.21215 -76.80141 7535 ft 268 kts 235°
2026-05-05 20:30 39.20220 -76.82009 7411 ft 240 kts 235°
2026-05-05 20:30 39.19312 -76.83706 7323 ft 223 kts 235°
2026-05-05 20:31 39.18447 -76.85322 7212 ft 221 kts 234°
2026-05-05 20:31 39.17495 -76.87074 7107 ft 258 kts 233°
2026-05-05 20:31 39.16427 -76.89059 7019 ft 268 kts 235°
2026-05-05 20:31 39.15440 -76.90932 6926 ft 253 kts 234°
2026-05-05 20:32 39.14461 -76.92756 6832 ft 242 kts 234°
2026-05-05 20:32 39.13521 -76.94511 6730 ft 234 kts 234°
2026-05-05 20:32 39.12604 -76.96210 6612 ft 228 kts 233°
2026-05-05 20:32 39.11710 -76.97875 6512 ft 228 kts 233°
2026-05-05 20:33 39.10776 -76.99587 6414 ft 239 kts 233°
2026-05-05 20:33 39.09815 -77.01377 6318 ft 247 kts 233°
2026-05-05 20:33 39.08825 -77.03220 6242 ft 253 kts 233°
2026-05-05 20:33 39.07808 -77.05098 6144 ft 258 kts 233°
2026-05-05 20:34 39.06783 -77.07010 6054 ft 261 kts 233°
2026-05-05 20:34 39.05765 -77.08906 5955 ft 253 kts 233°
2026-05-05 20:34 39.04790 -77.10717 5861 ft 246 kts 233°
2026-05-05 20:34 39.03821 -77.12509 5756 ft 242 kts 233°
2026-05-05 20:35 39.02869 -77.14275 5649 ft 239 kts 233°
2026-05-05 20:35 39.01925 -77.16026 5546 ft 237 kts 233°
2026-05-05 20:35 39.00987 -77.17747 5448 ft 233 kts 233°
2026-05-05 20:35 39.00072 -77.19453 5343 ft 231 kts 233°
2026-05-05 20:36 38.99151 -77.21145 5238 ft 231 kts 233°
2026-05-05 20:36 38.98234 -77.22837 5095 ft 231 kts 233°
2026-05-05 20:36 38.97309 -77.24550 4818 ft 236 kts 233°
2026-05-05 20:36 38.96352 -77.26305 4507 ft 242 kts 233°
2026-05-05 20:37 38.95378 -77.28103 4181 ft 248 kts 233°
2026-05-05 20:37 38.94721 -77.29310 3958 ft 250 kts 233°
2026-05-05 20:37 38.93386 -77.31782 3517 ft 254 kts 233°
2026-05-05 20:37 38.92392 -77.33611 3185 ft 246 kts 233°
2026-05-05 20:38 38.91441 -77.35357 2861 ft 238 kts 233°
2026-05-05 20:38 38.90515 -77.37063 2774 ft 224 kts 233°
2026-05-05 20:38 38.89663 -77.38709 2668 ft 225 kts 239°
2026-05-05 20:38 38.89356 -77.40757 2136 ft 242 kts 264°
2026-05-05 20:39 38.89691 -77.42861 1692 ft 240 kts 291°
2026-05-05 20:39 38.90541 -77.44440 1633 ft 173 kts 310°
2026-05-05 20:39 38.91383 -77.45273 1254 ft 143 kts 319°
2026-05-05 20:39 38.92269 -77.45745 864 ft 134 kts 337°
2026-05-05 20:40 38.93143 -77.46051 524 ft 133 kts 341°
2026-05-05 20:40 38.94044 -77.46128 340 ft 121 kts 358°
2026-05-05 20:40 38.95017 -77.46181 360 ft 163 kts 353°